London Cs, Ontario

6:56 PM EDT on August 25, 2016 (GMT -0400)
London

Weather History for CYXU - September, 2012

Change the Weather History Date:

Saturday, September 29, 2012

  Actual Average Record
Temperature  
Mean Temperature 52 °F -  
Max Temperature 62 °F 62 °F 73 °F (1998)
Min Temperature 41 °F 44 °F 33 °F (2000)
Degree Days  
Heating Degree Days 14    
Growing Degree Days 2 (Base 50)    
Moisture  
Dew Point 46 °F    
Average Humidity 85    
Maximum Humidity 100    
Minimum Humidity 45    
Precipitation  
Precipitation 0.00 in - - ()
Sea Level Pressure  
Sea Level Pressure 30.03 in    
Wind  
Wind Speed 3 mph ()    
Max Wind Speed 13 mph    
Max Gust Speed 23 mph    
Visibility 14.8 miles    
Events Fog , Rain , Thunderstorm    
Averages and records for this station are not official NWS values.
T = Trace of Precipitation, MM = Missing Value Source: Averaged Metar Reports

Daily Weather History Graph

Daily Weather History Graph

Search for Another Location

Airport or City:

Trip Planner

Search our weather history database for the weather conditions in past years. The results will help you decide how hot, cold, wet, or windy it might be!

Date:

Astronomy

Sep. 29, 2012 Rise Set
Actual Time 7:20 AM EDT 7:08 PM EDT
Civil Twilight 6:51 AM EDT 7:36 PM EDT
Nautical Twilight 6:18 AM EDT 8:09 PM EDT
Astronomical Twilight 5:45 AM EDT 8:43 PM EDT
Moon 6:39 PM EDT (9/29) 6:50 AM EDT (9/29)
Length of Visible Light 12h 44m
Length of Day
11h 48m
Full, 100% of the Moon is Illuminated
Sep 29
Full
Sep 29
Full
Oct 8
Last Quarter
Oct 15
New
Oct 21
First Quarter

Hourly Weather History & Observations

Time (EDT) Temp. Windchill Dew Point Humidity Pressure Visibility Wind Dir Wind Speed Gust Speed Precip Events Conditions
12:00 AM 42.8 °F 40.1 °F 42.8 °F 100% 30.10 in 15.0 mi NNW 4.6 mph - N/A   Partly Cloudy
1:00 AM 42.8 °F - 42.8 °F 100% 30.10 in 15.0 mi Calm Calm - N/A   Partly Cloudy
2:00 AM 42 °F - 42 °F 99% 30.10 in 15 mi Calm Calm - -  
2:00 AM 42.8 °F - 41.0 °F 93% 30.10 in 15.0 mi Calm Calm - N/A   Scattered Clouds
3:00 AM 42.8 °F 41.1 °F 42.8 °F 100% 30.09 in 20.0 mi North 3.5 mph - N/A   Scattered Clouds
4:00 AM 41.0 °F 39.0 °F 41.0 °F 100% 30.08 in 15.0 mi NNW 3.5 mph - N/A   Mostly Cloudy
5:00 AM 41.0 °F 38.0 °F 41.0 °F 100% 30.07 in 15.0 mi NNW 4.6 mph - N/A   Scattered Clouds
6:00 AM 41.0 °F 36.4 °F 41.0 °F 100% 30.07 in 15.0 mi North 6.9 mph - N/A   Mostly Cloudy
7:00 AM 41.0 °F - 41.0 °F 100% 30.08 in 15.0 mi North 2.3 mph - N/A Fog Shallow Fog
8:00 AM 41 °F - 40 °F 95% 30.09 in 15 mi Calm Calm - -  
8:00 AM 41.0 °F - 41.0 °F 100% 30.09 in 15.0 mi Calm Calm - N/A Fog Shallow Fog
9:00 AM 46.4 °F - 44.6 °F 93% 30.09 in 15.0 mi Calm Calm - N/A   Mostly Cloudy
10:00 AM 53.6 °F - 48.2 °F 82% 30.09 in 15.0 mi Calm Calm - N/A   Mostly Cloudy
11:00 AM 57.2 °F - 48.2 °F 72% 30.07 in 15.0 mi Calm Calm - N/A   Mostly Cloudy
12:00 PM 59.0 °F - 51.8 °F 77% 30.05 in 15.0 mi West 2.3 mph - N/A   Mostly Cloudy
1:00 PM 62.6 °F - 50.0 °F 63% 30.03 in 15.0 mi Variable 2.3 mph - N/A   Mostly Cloudy
2:00 PM 62 °F - 46 °F 45% 30.01 in 15 mi NNW 3.5 mph - -  
2:00 PM 62.6 °F - 46.4 °F 55% 30.01 in 15.0 mi Variable 2.3 mph - N/A   Mostly Cloudy
3:00 PM 62.6 °F - 46.4 °F 55% 29.99 in 15.0 mi NNW 2.3 mph - N/A   Mostly Cloudy
4:00 PM 62.6 °F - 46.4 °F 55% 29.97 in 15.0 mi North 5.8 mph - N/A   Overcast
4:22 PM 60.8 °F - 46.4 °F 59% 29.97 in 15.0 mi NE 8.1 mph - N/A Rain Light Rain Showers
4:35 PM 55.4 °F - 48.2 °F 77% 29.99 in 4.0 mi NNW 12.7 mph 23.0 mph N/A Rain , Thunderstorm Heavy Thunderstorms and Rain
5:00 PM 55.4 °F - 48.2 °F 77% 29.99 in 15.0 mi ENE 9.2 mph - N/A Rain , Thunderstorm Light Thunderstorms and Rain
5:12 PM 55.4 °F - 50.0 °F 82% 29.98 in 15.0 mi ENE 3.5 mph - N/A Rain Light Rain Showers
5:34 PM 55.4 °F - 50.0 °F 82% 29.98 in 15.0 mi East 3.5 mph - N/A   Mostly Cloudy
6:00 PM 55.4 °F - 51.8 °F 88% 29.98 in 15.0 mi SSE 5.8 mph - N/A   Mostly Cloudy
7:00 PM 51.8 °F - 50.0 °F 94% 29.99 in 15.0 mi SSW 2.3 mph - N/A   Mostly Cloudy
8:00 PM 48 °F - 48 °F 98% 30.00 in 15 mi NNE 5.8 mph - -   Overcast
8:00 PM 48.2 °F - 48.2 °F 100% 30.00 in 15.0 mi NE 6.9 mph - N/A   Overcast
9:00 PM 50.0 °F - 48.2 °F 94% 29.99 in 15.0 mi ENE 3.5 mph - N/A   Mostly Cloudy
10:00 PM 46.4 °F 43.5 °F 46.4 °F 100% 29.98 in 15.0 mi NE 5.8 mph - N/A   Mostly Cloudy
11:00 PM 48.2 °F - 46.4 °F 93% 29.97 in 15.0 mi East 3.5 mph - N/A   Mostly Cloudy